Meteo Giornale » Osservazioni meteo Italia » Resia Pass

ore: 18:55 - Osservazioni Meteo Resia Pass
Lat. 46° 50' N Lon. 10° 30' E Alt. 1800 metri s.l.m.

nuvoloso Europe/Rome

22 °C

Nuvoloso

Temp. 24 Ore

15 °C

23 °C

Sud

11.1 Km/h

Dew point 13 °C

Umidità 56 %

Visibilità  10 Km

Il sole sorge alle ore 05:21

Il sole tramonta alle ore 21:16

Data e Ora Cielo e Fenomeni T °C DP °C Um. % Pres. hPa Vis. km Vento km/h
Oggi h: 18:55 nuvoloso Nuvoloso 22 13 56 1020 10 S 11.1
Oggi h: 17:55 nuvoloso Nuvoloso 22 12 53 1020 10 S/SE 11.1
Oggi h: 16:55 nuvoloso Nuvoloso 23 12 49 1020 10 S 13
Oggi h: 14:55 poco_nuvoloso Poco Nuvoloso 22 13 56 1021 10 S 14.8
Oggi h: 13:55 nuvoloso Nuvoloso 22 13 56 1021 10 S 16.7
Oggi h: 12:55 nuvoloso Nuvoloso 21 14 64 1022 10 S 11.1
Oggi h: 11:55 nuvoloso Nuvoloso 20 14 68 1022 10 S 13
Oggi h: 10:55 molto_nuvoloso Molto Nuvoloso 18 14 77 1022 10 S 11.1
Oggi h: 09:55 molto_nuvoloso Molto Nuvoloso 17 15 88 1022 10 S/SO 7.4
Oggi h: 08:55 molto_nuvoloso Molto Nuvoloso 16 16 100 1022 10 S/SE 9.3
Oggi h: 07:55 molto_nuvoloso Molto Nuvoloso 15 15 100 1022 8 N 7.4
Oggi h: 06:55 molto_nuvoloso Molto Nuvoloso 15 15 100 1022 6 S/SO 7.4
Oggi h: 05:55 molto_nuvoloso Molto Nuvoloso 15 15 100 1022 8 S/SO 7.4
Oggi h: 04:55 nuvoloso Nuvoloso 16 14 87 1022 10 S 7.4
Oggi h: 03:55 nuvoloso Nuvoloso 16 14 87 1022 10 S 7.4
Oggi h: 02:55 nuvoloso Nuvoloso 16 15 93 1022 10 S 7.4
Oggi h: 01:55 nuvoloso Nuvoloso 16 15 93 1022 10 S 7.4
Ieri h: 23:55 nuvoloso Nuvoloso 17 15 88 1022 10 E/SE 14.8
Ieri h: 22:55 nuvoloso Nuvoloso 17 15 88 1021 10 SE 13
Ieri h: 21:55 nuvoloso Nuvoloso 18 15 82 1020 10 S/SE 16.7
Ieri h: 19:55 nuvoloso Nuvoloso 22 16 68 1019 10 S/SE 13